Dewpoint
59 59 58 57 57 57 57 56 56 57 57 57 57 57 56 57 57 58 58 58 58 58 58 57 56 57 55 55 55 53 53 52 50 52 52 52 52 52 55 56 57 56 56
59 59 58 58 58 58 57 57 57 56 56 56 57 57 57 57 57 57 57 57 57 57 57 57 56 56 55 54 54 53 53 52 51 49 51 51 51 51 51 52 52 55 53
57 58 58 58 58 58 59 58 58 57 57 57 57 57 57 57 57 57 57 57 57 57 57 57 56 56 55 55 54 53 53 53 52 51 50 51 51 51 51 52 52 49 43
47 53 55 57 57 56 56 56 55 54 52 50 50 49 50 51 54 56 57 57 57 57 57 57 56 56 55 55 54 53 53 53 53 52 52 52 52 52 52 50 49 49 43
43 43 44 49 51 49 48 46 45 45 44 44 44 43 42 42 41 45 55 56 51 48 46 44 44 44 45 50 54 53 53 52 52 51 51 51 51 50 49 46 48 44 38
39 39 40 41 42 41 41 41 40 39 40 40 39 38 38 37 37 39 47 47 45 43 40 39 38 38 36 36 36 35 37 50 51 51 50 49 40 38 38 40 43 45 41
37 37 36 37 36 36 36 36 36 36 37 37 36 35 34 35 36 36 37 38 38 38 39 38 36 35 35 33 33 33 32 32 33 41 38 34 33 32 33 37 38 38 33
34 35 35 34 33 33 33 33 33 34 34 35 34 34 33 33 34 34 34 34 34 33 34 37 35 34 33 33 32 31 30 30 30 30 30 30 30 31 32 34 34 30 29
31 32 33 34 33 32 31 31 31 31 31 32 33 32 32 32 33 33 32 32 31 32 33 34 33 32 33 33 31 29 29 29 29 28 27 26 28 29 31 31 30 32 28
30 30 32 32 32 32 31 30 30 30 30 30 30 31 32 32 33 32 31 30 30 30 30 31 32 31 31 31 29 28 26 27 27 25 23 21 20 20 22 18 21 29 24
29 30 30 30 32 32 31 31 30 30 29 29 28 29 30 30 31 32 31 30 30 29 30 30 31 32 31 31 29 28 26 24 22 21 20 19 19 17 16 17 17 18 14
27 27 27 28 29 30 29 29 29 29 28 28 27 27 29 30 31 31 30 30 30 28 28 29 30 30 30 29 27 26 23 21 21 18 17 16 16 17 17 17 17 17 18
25 25 26 26 26 27 26 27 26 27 26 26 26 26 26 28 29 30 30 29 28 26 26 27 26 25 25 25 24 23 21 19 19 16 14 11 12 16 20 21 22 20 20
24 24 25 25 25 25 25 25 24 24 24 24 25 25 26 27 27 29 28 26 25 23 22 22 22 21 20 19 19 20 19 18 17 15 13 13 19 17 16 19 17 19 15
23 24 23 23 23 24 25 25 24 26 25 24 24 25 25 26 28 28 26 25 23 23 21 20 19 18 17 17 17 17 18 17 16 16 16 16 16 15 14 15 14 14 13
21 21 21 21 21 21 23 24 28 28 28 28 28 27 29 30 29 28 27 26 24 22 18 16 15 15 14 14 14 14 14 13 14 14 13 13 13 14 13 13 12 12 11
26 25 22 21 19 19 19 19 18 20 23 26 25 26 27 26 25 23 22 21 19 17 14 14 13 13 13 13 13 12 11 11 10 9 9 9 11 11 11 11 10 10 10
22 22 22 23 20 18 18 17 17 16 15 16 21 23 22 23 21 20 19 16 14 14 13 12 12 12 12 11 10 8 7 6 6 6 4 2 4 8 8 8 8 5 8
19 18 18 19 19 19 17 16 15 14 13 13 15 14 15 18 18 17 16 12 11 11 11 10 10 10 8 6 3 2 1 0 -1 -4 -3 -0 -6 3 3 4 5 3 3
16 18 17 17 18 17 16 13 12 12 12 11 10 10 12 10 8 7 7 8 8 8 8 8 7 7 7 4 0 -3 -3 -3 -2 -1 -8 -14 -15 -3 -2 -1 -1 -1 4
14 15 14 16 16 15 12 10 11 10 11 10 7 6 8 8 7 7 7 6 6 6 5 5 3 2 1 0 1 -4 -6 -6 -6 -7 -7 -6 -18 -8 -3 -3 -2 2 5
15 16 16 15 15 14 13 11 10 10 10 9 7 5 5 5 5 4 3 -2 -0 5 4 2 2 1 0 -2 -5 -12 -12 -17 -17 -14 -14 -12 -9 -9 -10 -9 -10 -11 -4
13 11 13 14 13 11 10 11 7 6 5 3 5 5 3 -2 -3 1 -2 -11 -4 -6 -5 -5 -7 -6 -7 -11 -11 -9 -10 -12 -14 -20 -20 -19 -12 -13 -15 -12 -9 -10 -11
11 7 11 8 6 6 0 -1 4 7 7 2 -3 -1 -1 -6 -11 -11 -16 -18 -16 -19 -19 -15 -10 -7 -10 -17 -17 -11 -9 -16 -14 -15 -20 -20 -14 -10 -14 -11 -11 -14 -14
3 2 3 2 -3 -2 -7 -6 -7 -4 -4 -9 -11 -11 -9 -11 -12 -17 -20 -19 -17 -18 -13 -15 -15 -14 -14 -16 -15 -13 -14 -13 -19 -19 -20 -19 -19 -20 -18 -14 -17 -13 -15
1 1 3 5 3 1 -1 -5 -8 -6 -8 -7 -6 -11 -11 -8 -8 -16 -17 -17 -15 -16 -15 -14 -13 -12 -13 -11 -11 -12 -15 -14 -19 -20 -24 -17 -19 -19 -20 -18 -16 -16 -13
Lifted_Index
-2 -2 -3 -3 -3 -3 -3 -3 -2 -2 -2 -1 -0 -0 -0 -0 -0 0 0 1 1 1 1 2 2 3 3 3 4 4 3 3 3 3 3 3 3 3 3 3 3 3 3
-2 -2 -2 -2 -3 -3 -3 -3 -3 -2 -1 -1 -0 -0 -0 0 0 0 1 1 2 1 1 2 2 2 3 3 3 3 3 3 3 3 3 3 3 3 4 4 4 4 4
-0 -1 -1 -2 -2 -2 -2 -2 -2 -2 -1 -0 0 0 0 0 1 1 1 2 2 2 2 2 2 2 3 3 3 3 3 3 4 4 4 4 4 4 4 4 4 4 4
1 1 -0 -1 -1 -1 -2 -2 -2 -2 -1 0 1 1 1 1 1 1 1 2 2 2 2 2 2 2 2 3 3 3 3 3 4 4 4 4 4 4 4 4 4 4 5
2 2 1 0 -1 -1 -1 -2 -1 -1 -0 1 1 2 2 2 2 2 2 2 2 2 2 2 2 2 2 3 3 3 3 3 4 4 4 4 4 4 4 4 4 4 4
2 2 2 1 0 -0 -1 -1 -1 0 1 1 2 2 2 2 2 2 2 2 2 2 2 2 2 2 2 2 2 2 3 3 3 3 3 4 4 4 4 4 4 4 3
3 3 3 2 1 0 -0 -0 0 1 1 2 3 3 3 2 2 2 2 2 2 2 2 2 2 2 2 2 2 2 2 3 3 3 3 3 3 4 4 4 4 3 3
5 5 5 5 3 1 1 1 1 1 2 2 3 3 3 2 2 2 2 2 2 2 2 2 2 2 2 2 2 2 3 3 3 4 4 4 4 5 5 4 4 3 3
7 7 7 7 6 4 3 2 2 2 2 3 3 3 3 2 2 3 3 2 2 2 2 3 3 3 3 3 3 3 3 4 4 5 5 6 7 7 7 7 6 5 5
9 9 9 9 8 8 7 6 5 5 5 4 4 5 5 4 4 5 5 4 3 3 3 4 4 5 5 5 5 5 5 5 6 7 8 9 10 11 12 12 11 10 9
12 11 11 11 11 10 10 9 9 8 8 7 7 8 8 8 8 9 9 8 7 6 5 6 8 9 9 9 9 9 9 10 10 10 11 13 14 15 16 16 16 15 15
13 12 12 12 12 12 11 11 11 10 10 9 9 10 11 12 12 12 12 12 11 10 10 11 12 13 13 13 13 13 14 14 14 14 14 15 17 17 18 19 20 20 20
13 13 13 13 13 13 13 12 12 12 11 10 10 11 12 13 14 15 15 15 14 14 14 16 17 17 16 16 17 17 17 18 18 17 17 18 19 20 21 22 22 22 22
13 13 14 14 14 14 14 14 14 14 13 12 12 12 13 14 15 17 17 17 17 16 17 17 18 18 18 19 20 20 20 20 20 20 21 21 22 22 23 23 23 23 22
13 14 14 15 15 15 15 15 15 16 16 15 15 15 15 15 16 18 18 18 18 18 18 18 18 19 19 20 21 22 22 23 23 23 23 23 23 23 23 23 23 22 22
14 14 14 15 15 15 15 15 16 17 17 17 17 17 17 17 18 19 19 20 20 21 20 20 20 21 21 22 22 23 23 24 24 24 23 23 23 23 23 23 23 22 21
14 14 14 15 15 14 15 15 15 16 16 17 18 18 18 19 19 20 21 22 22 22 22 22 22 23 23 23 23 23 23 24 24 24 23 23 23 22 22 22 22 22 22
15 15 15 16 16 16 16 16 16 16 16 17 18 19 20 20 21 22 23 23 23 23 23 22 23 23 23 24 24 24 24 24 24 24 23 23 23 22 22 22 22 23 23
17 17 17 17 18 18 18 18 18 18 18 19 20 21 21 22 22 23 23 23 22 23 23 23 23 23 24 24 24 24 24 24 24 24 23 23 23 23 23 23 23 23 23
18 19 19 19 19 19 19 19 19 19 19 20 20 21 22 22 22 22 23 23 23 23 23 23 24 24 24 24 25 25 24 24 24 24 24 24 24 24 24 24 24 24 24
19 19 19 19 19 19 20 20 20 20 20 20 21 22 22 22 22 22 23 23 23 23 24 24 24 24 25 25 25 25 25 24 24 25 25 25 25 25 25 25 25 24 24
20 20 20 20 20 20 20 20 20 20 20 21 21 22 23 23 23 23 23 24 24 25 25 25 25 25 25 25 25 25 25 25 25 25 25 25 25 25 25 25 24 24 24
20 20 20 20 20 20 20 20 20 21 21 21 22 22 23 23 23 23 24 24 25 25 26 26 25 25 26 26 26 26 25 25 25 25 25 25 25 25 24 24 24 23 23
20 19 19 19 19 19 19 20 20 20 21 21 21 22 22 23 23 23 24 24 25 25 25 25 25 25 25 26 26 26 26 26 26 26 25 25 24 24 24 23 23 22 22
19 19 19 18 18 18 18 19 19 20 20 20 21 21 22 23 23 23 24 24 24 24 25 25 25 25 25 25 26 26 26 26 26 25 25 24 24 23 23 23 22 22 22
18 18 18 18 18 18 18 18 19 19 20 20 21 21 22 22 23 23 24 24 24 24 24 25 25 25 25 25 26 26 26 26 25 25 25 24 23 23 22 22 22 22 21